Starlink 3339

operational
NORAD ID: 50820 Int'l Des: 2022-001 Owner: SPXS Country: US Constellation: starlink
LEOCIRCULAR

About Starlink 3339

Description loading...

Live Position

Loading 3D Globe...

Upcoming Passes

Altitude History

Altitude vs Time

uPlot chart will show altitude changes over time

Two-Line Element Set

1 50820U 22001T 25302.52899001 -.00001857 00000-0 -98654-4 0 9995
2 50820 53.2171 37.9214 0001240 105.9900 254.1229 15.08836197210605
Epoch: Oct 29, 2025 • Age: 5 hours

Current Status

Altitude 541.5 km
Velocity 7.60 km/s
Sub-Earth Point 34.31°N, 122.83°W
Launch Date Jan 6, 2022
Age 3.8 years
Type internet

Technical Details

Classification Payload
Mass 297.00 kg
Dry Mass 275.00 kg
Total Mass 297.00 kg
Length 0.20 m
Diameter 2.80 m
Span 9.00 m
Shape Box + pan
Manufacturer SPXS
Bus Type Starlink
Phase Status In Orbit
Owner/State SPXS/US

Large Constellations

Loading constellations...